Terminal Aerodrome Forecast
Issued by NWS Columbia, SC

Home | Current Version | Previous Version | Text Only | Print | Product List | Glossary On
Versions: 1 2 3 4 5 6 7 8 9 10 11 12 13 14 15 16 17 18 19 20 21 22 23 24 25 26 27 28 29 30 31 32 33 34 35 36 37 38 39 40 41 42 43 44 45 46 47
000
FTUS42 KCAE 290235 AAA
TAFAGS
TAF AMD
KAGS 290235Z 2903/2924 16006KT P6SM SCT250
     FM291000 15004KT P6SM SCT015
      TEMPO 2911/2914 4SM BR BKN010
     FM291500 16008KT P6SM SCT030
     FM291700 18010KT P6SM SCT050=

USA.gov is the U.S. government's official web portal to all federal, state and local government web resources and services.